Weather observations for the past three days for
Scottsdale Airport
Imperial (Metric)
Date Time (mst) Wind (mph) Vis. (mi.) Weather Sky Cond. Temperature (ºF) Relative Humidity Wind Chill (°F) Heat Index (°F) Pressure Precipitation (in)
Air Dwpt 6 hour altimeter (in) sea level (mb) 1 hr 3 hr 6 hr
Max. Min.
15 16:53 W 15 G 22 10.00 Fair CLR 105.1 61 105.1 93.9 24% 107 29.79 1005.7
15 15:53 W 10 G 18 10.00 Fair CLR 104 62.1 25% 106 29.83 1006.8
15 14:53 SW 7 G 20 10.00 Fair CLR 102 62.1 27% 104 29.87 1008.3
15 13:53 SW 9 G 17 10.00 Fair CLR 100 62.1 29% 102 29.91 1009.8
15 12:53 W 9 10.00 Fair CLR 99 62.1 30% 100 29.95 1011.2
15 11:53 SW 7 10.00 Fair CLR 97 62.1 32% 98 29.98 1012.3
15 10:53 Calm 10.00 Fair CLR 93.9 64 93.9 84 37% 96 30 1013.2
15 09:53 Vrbl 3 10.00 Fair CLR 91 64.9 42% 93 30.02 1014.0
15 08:53 Calm 10.00 Fair CLR 88 64.9 46% 90 30.03 1013.9
15 07:53 Vrbl 3 10.00 Fair CLR 87.1 66.9 51% 90 30.03 1014.0
15 06:53 NW 5 10.00 Fair CLR 84.9 69.1 59% 89 30.03 1013.7
15 05:53 Calm 10.00 Fair CLR 84.9 66 53% 87 30.01 1013.2
15 04:53 Calm 10.00 Fair CLR 84 69.1 87.1 81 61% 88 30 1012.7
15 03:53 E 3 10.00 Fair CLR 84.9 69.1 59% 89 29.98 1012.2
15 02:53 SW 5 10.00 Fair CLR 86 70 59% 91 29.97 1011.9
15 01:53 NE 7 10.00 Fair CLR 87.1 69.1 55% 91 29.97 1011.9
15 00:53 N 8 10.00 Fair CLR 86 69.1 57% 90 29.98 1012.1
14 23:53 Vrbl 3 10.00 Fair CLR 82 73 74% 87 30.01 1013.2
14 22:53 NE 9 10.00 Mostly Cloudy BKN027 82 72 105.1 77 72% 87 29.99 1012.7 0.4
14 21:53 NW 14 G 36 10.00 Thunderstorm Light Rain OVC027 80.1 71.1 74% 84 30.05 1014.8 0.4
14 20:53 W 16 G 25 10.00 Mostly Cloudy BKN110 100 63 30% 102 29.95 1011.0
14 19:53 SW 9 10.00 Fair CLR 102 60.1 25% 103 29.91 1009.8
14 18:53 W 12 10.00 Fair CLR 102.9 61 25% 104 29.89 1009.1
14 17:53 SW 13 G 18 10.00 Fair CLR 104 61 24% 106 29.88 1008.8
14 16:53 W 9 G 20 10.00 Fair CLR 105.1 61 105.1 95 24% 107 29.89 1008.9
14 15:53 Calm 10.00 Fair CLR 105.1 62.1 25% 107 29.91 1009.6
14 14:53 SW 14 G 18 10.00 Fair CLR 102.9 64 28% 106 29.95 1010.8
14 13:53 W 6 G 21 10.00 Fair CLR 100 64.9 32% 103 29.98 1011.9
14 12:53 W 12 G 17 10.00 Fair CLR 100 64.9 32% 103 30.01 1012.9
14 11:53 Vrbl 6 10.00 Fair CLR 99 66 34% 103 30.03 1013.7
14 10:53 W 8 10.00 Fair CLR 96.1 64.9 96.1 87.1 36% 99 30.04 1014.1
14 09:53 SW 8 10.00 Fair CLR 93.9 64.9 38% 96 30.06 1014.6
14 08:53 W 8 10.00 Fair CLR 91 66.9 45% 94 30.06 1014.9
14 07:53 W 7 10.00 Fair CLR 89.1 68 50% 93 30.07 1015.2
14 06:53 NW 7 10.00 Fair CLR 87.1 68 53% 91 30.05 1014.5
14 05:53 W 9 10.00 Fair CLR 87.1 66.9 51% 90 30.03 1013.9
14 04:53 NW 8 10.00 Fair CLR 88 66 100.9 88 48% 90 30.02 1013.3
14 03:53 W 9 G 22 10.00 Fair CLR 89.1 64 43% 90 30 1012.5
14 02:53 W 10 G 17 10.00 Fair CLR 93 62.1 36% 94 29.96 1011.4
14 01:53 W 7 10.00 Fair CLR 95 63 35% 96 29.95 1010.8
14 00:53 W 9 G 21 10.00 Fair CLR 97 64 34% 99 29.94 1010.7
13 23:53 W 12 G 20 10.00 Fair CLR 98.1 63 32% 100 29.93 1010.4
13 22:53 W 7 10.00 Fair CLR 100.9 55.9 109 100.9 22% 100 29.92 1009.8
13 21:53 W 6 10.00 Fair CLR 102 55 21% 101 29.9 1009.2
13 20:53 W 6 10.00 Fair CLR 104 53.1 18% 102 29.89 1008.8
13 19:53 W 5 10.00 Fair CLR 106 50 15% 103 29.87 1008.2
13 18:53 W 8 10.00 Fair CLR 108 48.9 14% 105 29.86 1007.8
13 17:53 Calm 10.00 Fair CLR 108 52 16% 106 29.86 1007.8
13 16:53 SW 8 G 18 10.00 Fair CLR 109 52 109 100.9 15% 107 29.87 1008.1
13 15:53 W 8 10.00 Fair CLR 109 53.1 16% 107 29.89 1008.8
13 14:53 SW 9 10.00 Fair CLR 107.1 55 18% 106 29.92 1009.7
13 13:53 N 5 10.00 Fair CLR 108 55 17% 107 29.94 1010.6
13 12:53 W 10 G 20 10.00 Fair CLR 106 59 21% 107 29.95 1011.0
13 11:53 Calm 10.00 Fair CLR 102.9 60.1 24% 104 29.97 1011.4
13 10:53 S 6 10.00 Fair CLR 102 61 102 87.1 26% 103 29.97 1011.7
13 09:53 SE 9 G 18 10.00 Fair CLR 102 57 23% 101 29.98 1011.7
13 08:53 SE 9 10.00 Fair CLR 99 60.1 28% 99 29.97 1011.6
13 07:53 E 7 10.00 Fair CLR 96.1 55.9 26% 94 29.96 1011.2
13 06:53 E 5 10.00 Fair CLR 91.9 55 29% 90 29.94 1010.5
13 05:53 NW 3 10.00 Fair CLR 88 57 35% 87 29.91 1009.7
13 04:53 S 3 10.00 Fair CLR 89.1 55 104 89.1 31% 87 29.89 1008.9
13 03:53 N 6 10.00 Fair CLR 93.9 53.1 25% 91 29.87 1008.1
13 02:53 N 7 10.00 Fair CLR 93.9 54 26% 92 29.87 1008.3
13 01:53 NE 16 G 24 10.00 Fair CLR 96.1 54 24% 94 29.89 1009.0
13 00:53 NE 20 G 26 10.00 Thunderstorm in Vicinity FEW085 93 55.9 29% 91 29.89 1009.0
12 23:53 NE 15 G 21 10.00 Thunderstorm in Vicinity FEW100 102 52 19% 100 29.87 1008.0
12 22:53 NE 6 10.00 Fair CLR 102 48.9 111 102 17% 99 29.84 1007.1
12 21:53 N 3 10.00 Fair CLR 104 48 15% 100 29.83 1006.7
12 20:53 N 5 10.00 Fair CLR 106 48.9 15% 103 29.8 1005.9
12 19:53 Calm 10.00 Fair CLR 108 46.9 13% 104 29.79 1005.6
12 18:53 SW 3 10.00 Fair CLR 109 46.9 12% 105 29.78 1005.2
12 17:53 Calm 10.00 Fair CLR 109.9 46.9 12% 106 29.79 1005.3
Date Time (mst) Wind (mph) Vis. (mi.) Weather Sky Cond. Air Dwpt Max. Min. Relative Humidity Wind Chill (°F) Heat Index (°F) altimeter (in) sea level (mb) 1 hr 3 hr 6 hr
6 hour
Temperature (ºF) Pressure Precipitation (in)